Neptune Avra — 9HKH6 — position and weather

sailwx.info

Track history (hours):
 
Tides and Currents Weather Stations Pressure Air Temp Water Temp Dewpoint Dewpoint Depression Visibility Wind Speed Wind Dir Waves Ship Positions

Neptune Avra

Last reported at 2014-Jul-24 10:14 UTC. Time now 2014-Jul-24 10:48 UTC.
Position N 36°21' E 014°51'.

Length 155 m; draft 6.7 m.

Type: Cargo ship. MMSI: 248598000.

Date/timePositionNaut miles runAvg speedWind from/ knotsBaromVisibWave heightAir tempDewpointWater temp
2014-Jul-24 10:14N 36°21' E 014°51'1115.8
2014-Jul-24 09:33N 36°25' E 014°39'1815.6
2014-Jul-24 08:26N 36°32' E 014°19'1315.4
2014-Jul-24 07:34N 36°37' E 014°03'1615.0
2014-Jul-24 06:31N 36°42' E 013°45'42314.9
2014-Jul-23 02:13N 39°46' E 005°40'4315.5
2014-Jul-22 23:27N 40°07' E 004°52'1414.7
2014-Jul-22 22:30N 40°14' E 004°36'3614.7
2014-Jul-22 20:04N 40°32' E 003°55'2315.0
2014-Jul-22 18:33N 40°43' E 003°29'1514.9
2014-Jul-22 17:33N 40°51' E 003°12'1515.0
2014-Jul-22 16:34N 40°58' E 002°55'1514.6
2014-Jul-22 15:33N 41°05' E 002°38'1414.3
2014-Jul-22 14:33N 41°12' E 002°21'1211.9
2014-Jul-22 13:33N 41°21' E 002°10'1 0.9
2014-Jul-22 12:33N 41°20' E 002°09'0 0.0
2014-Jul-22 09:25N 41°20' E 002°09'0 0.0
2014-Jul-22 08:12N 41°20' E 002°09'0 0.0
2014-Jul-22 03:31N 41°20' E 002°09'7 6.7
2014-Jul-22 02:32N 41°14' E 002°13'1414.7
2014-Jul-22 01:34N 41°03' E 002°25'1514.9
2014-Jul-22 00:33N 40°51' E 002°36'1515.2
2014-Jul-21 23:33N 40°38' E 002°48'1515.1
2014-Jul-21 22:33N 40°26' E 002°59'3415.0
2014-Jul-21 20:17N 39°59' E 003°26'1114.4
2014-Jul-21 19:33N 39°50' E 003°34'1514.8
2014-Jul-21 18:30N 39°37' E 003°46'1 1.1
2014-Jul-21 17:31N 39°36' E 003°46'  
2014-Jul-18 18:25N 36°52' E 005°50'0 0.0
2014-Jul-18 15:25N 36°52' E 005°50'0 0.0
2014-Jul-18 13:30N 36°52' E 005°50'0 0.0
2014-Jul-18 12:27N 36°52' E 005°50'0 0.0
2014-Jul-18 09:13N 36°52' E 005°50'0 0.1
2014-Jul-18 08:22N 36°52' E 005°50'0 0.0
2014-Jul-18 07:29N 36°52' E 005°50'0 0.0
2014-Jul-18 06:32N 36°52' E 005°50'0 0.0
2014-Jul-18 03:20N 36°52' E 005°50'0 0.0
2014-Jul-18 00:14N 36°52' E 005°50'0 0.0
2014-Jul-17 23:27N 36°52' E 005°50'0 0.0
2014-Jul-17 22:25N 36°52' E 005°50'0 0.0
2014-Jul-17 20:31N 36°52' E 005°50'0 0.0
2014-Jul-17 15:19N 36°52' E 005°50'0 0.0
2014-Jul-17 14:07N 36°52' E 005°50'0 0.0
2014-Jul-17 13:18N 36°52' E 005°50'0 0.0
2014-Jul-17 11:30N 36°52' E 005°50'0 0.0
2014-Jul-17 06:12N 36°52' E 005°50'227 7.4
2014-Jul-15 23:28N 40°33' E 004°43'1413.9
2014-Jul-15 22:29N 40°46' E 004°39'1414.0
2014-Jul-15 21:31N 40°60' E 004°35'1414.0
2014-Jul-15 20:30N 41°13' E 004°31'1313.8
2014-Jul-15 19:33N 41°26' E 004°27'1514.4
2014-Jul-15 18:33N 41°40' E 004°22'1414.6
2014-Jul-15 17:33N 41°54' E 004°18'1514.3
2014-Jul-15 16:32N 42°08' E 004°13'1414.8
2014-Jul-15 15:33N 42°22' E 004°08'1515.1
2014-Jul-15 14:33N 42°37' E 004°03'1514.9
2014-Jul-15 13:33N 42°52' E 003°59'1615.1
2014-Jul-15 12:30N 43°07' E 003°53'19 2.6
2014-Jul-15 05:19N 43°24' E 003°43'2 2.2
2014-Jul-15 04:33N 43°24' E 003°45'7 6.6
2014-Jul-15 03:33N 43°19' E 003°51'6 5.5
2014-Jul-15 02:30N 43°14' E 003°56'0 0.0
2014-Jul-15 00:32N 43°14' E 003°56'0 0.0
2014-Jul-14 22:08N 43°14' E 003°56'0 0.0
2014-Jul-14 17:27N 43°14' E 003°56'18 5.6
2014-Jul-14 14:17N 42°60' E 004°10'1514.4
2014-Jul-14 13:13N 42°47' E 004°22'913.5
2014-Jul-14 12:33N 42°40' E 004°30'2713.8
2014-Jul-14 10:33N 42°18' E 004°52'  
Track history (hours):
 
Tides and Currents Weather Stations Pressure Air Temp Water Temp Dewpoint Dewpoint Depression Visibility Wind Speed Wind Dir Waves Ship Positions

Neptune Avra

Last reported at 2014-Jul-24 10:14 UTC. Time now 2014-Jul-24 10:48 UTC.
Position N 36°21' E 014°51'.

Length 155 m; draft 6.7 m.

Type: Cargo ship. MMSI: 248598000.

Date/timePositionNaut miles runAvg speedWind from/ knotsBaromVisibWave heightAir tempDewpointWater temp
2014-Jul-24 10:14N 36°21' E 014°51'1115.8
2014-Jul-24 09:33N 36°25' E 014°39'1815.6
2014-Jul-24 08:26N 36°32' E 014°19'1315.4
2014-Jul-24 07:34N 36°37' E 014°03'1615.0
2014-Jul-24 06:31N 36°42' E 013°45'42314.9
2014-Jul-23 02:13N 39°46' E 005°40'4315.5
2014-Jul-22 23:27N 40°07' E 004°52'1414.7
2014-Jul-22 22:30N 40°14' E 004°36'3614.7
2014-Jul-22 20:04N 40°32' E 003°55'2315.0
2014-Jul-22 18:33N 40°43' E 003°29'1514.9
2014-Jul-22 17:33N 40°51' E 003°12'1515.0
2014-Jul-22 16:34N 40°58' E 002°55'1514.6
2014-Jul-22 15:33N 41°05' E 002°38'1414.3
2014-Jul-22 14:33N 41°12' E 002°21'1211.9
2014-Jul-22 13:33N 41°21' E 002°10'1 0.9
2014-Jul-22 12:33N 41°20' E 002°09'0 0.0
2014-Jul-22 09:25N 41°20' E 002°09'0 0.0
2014-Jul-22 08:12N 41°20' E 002°09'0 0.0
2014-Jul-22 03:31N 41°20' E 002°09'7 6.7
2014-Jul-22 02:32N 41°14' E 002°13'1414.7
2014-Jul-22 01:34N 41°03' E 002°25'1514.9
2014-Jul-22 00:33N 40°51' E 002°36'1515.2
2014-Jul-21 23:33N 40°38' E 002°48'1515.1
2014-Jul-21 22:33N 40°26' E 002°59'3415.0
2014-Jul-21 20:17N 39°59' E 003°26'1114.4
2014-Jul-21 19:33N 39°50' E 003°34'1514.8
2014-Jul-21 18:30N 39°37' E 003°46'1 1.1
2014-Jul-21 17:31N 39°36' E 003°46'  
2014-Jul-18 18:25N 36°52' E 005°50'0 0.0
2014-Jul-18 15:25N 36°52' E 005°50'0 0.0
2014-Jul-18 13:30N 36°52' E 005°50'0 0.0
2014-Jul-18 12:27N 36°52' E 005°50'0 0.0
2014-Jul-18 09:13N 36°52' E 005°50'0 0.1
2014-Jul-18 08:22N 36°52' E 005°50'0 0.0
2014-Jul-18 07:29N 36°52' E 005°50'0 0.0
2014-Jul-18 06:32N 36°52' E 005°50'0 0.0
2014-Jul-18 03:20N 36°52' E 005°50'0 0.0
2014-Jul-18 00:14N 36°52' E 005°50'0 0.0
2014-Jul-17 23:27N 36°52' E 005°50'0 0.0
2014-Jul-17 22:25N 36°52' E 005°50'0 0.0
2014-Jul-17 20:31N 36°52' E 005°50'0 0.0
2014-Jul-17 15:19N 36°52' E 005°50'0 0.0
2014-Jul-17 14:07N 36°52' E 005°50'0 0.0
2014-Jul-17 13:18N 36°52' E 005°50'0 0.0
2014-Jul-17 11:30N 36°52' E 005°50'0 0.0
2014-Jul-17 06:12N 36°52' E 005°50'227 7.4
2014-Jul-15 23:28N 40°33' E 004°43'1413.9
2014-Jul-15 22:29N 40°46' E 004°39'1414.0
2014-Jul-15 21:31N 40°60' E 004°35'1414.0
2014-Jul-15 20:30N 41°13' E 004°31'1313.8
2014-Jul-15 19:33N 41°26' E 004°27'1514.4
2014-Jul-15 18:33N 41°40' E 004°22'1414.6
2014-Jul-15 17:33N 41°54' E 004°18'1514.3
2014-Jul-15 16:32N 42°08' E 004°13'1414.8
2014-Jul-15 15:33N 42°22' E 004°08'1515.1
2014-Jul-15 14:33N 42°37' E 004°03'1514.9
2014-Jul-15 13:33N 42°52' E 003°59'1615.1
2014-Jul-15 12:30N 43°07' E 003°53'19 2.6
2014-Jul-15 05:19N 43°24' E 003°43'2 2.2
2014-Jul-15 04:33N 43°24' E 003°45'7 6.6
2014-Jul-15 03:33N 43°19' E 003°51'6 5.5
2014-Jul-15 02:30N 43°14' E 003°56'0 0.0
2014-Jul-15 00:32N 43°14' E 003°56'0 0.0
2014-Jul-14 22:08N 43°14' E 003°56'0 0.0
2014-Jul-14 17:27N 43°14' E 003°56'18 5.6
2014-Jul-14 14:17N 42°60' E 004°10'1514.4
2014-Jul-14 13:13N 42°47' E 004°22'913.5
2014-Jul-14 12:33N 42°40' E 004°30'2713.8
2014-Jul-14 10:33N 42°18' E 004°52'  

Dump ship's entire track history